[[{"header":{"parameterUnit":"m.s-1","parameterCategory":1,"la1":30.2991,"la2":30.254,"lo1":-89.0895,"lo2":-89.0444,"dy":0.0017,"dx":0.0017,"nx":28,"ny":28,"refTime":"2024-07-21T09:00:00:Z","depth":0,"parameterNumber":2,"parameterNumberName":"U-component_of_WINDS"},"data":[0,0,0,0,0,0,0,0,0,0,0,0,0,0,0,0,0,0,0,0,0,0,0,0,0,0,0,0,0,0,0,0,0,0,0,0,0,0,0,0,0,0,0,0,0,0,0,0,0,0,0,0,0,0,0,0,0,0,1.5806,1.5806,0,1.5788,1.5787,1.5787,1.5697,1.5695,1.5693,1.5691,1.5674,1.5676,1.5677,0,0,0,0,0,0,0,0,0,0,0,0,0,1.5764,1.5766,1.5806,1.5806,1.5805,1.5788,1.5787,1.5787,1.5698,1.5695,1.5692,1.569,1.5674,1.5675,1.5677,0,0,0,0,0,0,0,0,0,0,0,0,0,1.5768,1.5766,1.5806,1.5759,1.5754,1.5788,1.5787,1.5787,1.5698,1.5695,1.5692,1.5689,1.5673,1.5675,1.5677,1.5756,0,0,1.5685,1.5686,0,0,0,0,0,0,0,0,1.5768,1.577,1.5766,1.5762,1.5757,1.5741,1.5766,1.5777,1.5699,1.572,1.5691,1.5687,1.5699,1.5699,1.5703,1.5755,1.5754,1.5685,1.5686,1.5687,1.5688,0,0,0,0,0,0,0,1.5768,1.577,1.5799,1.5766,1.5761,1.5739,1.5736,1.5768,1.5728,1.5717,1.5711,1.571,1.5696,1.5701,1.5702,1.5754,1.5685,1.5687,1.5688,1.5689,1.5867,1.587,0,0,0,0,0,0,1.5774,1.577,1.5799,1.5798,1.5755,1.5742,1.5739,1.575,1.5727,1.572,1.5713,1.5706,1.5698,1.5699,1.5701,1.5788,1.5687,1.5689,1.5691,1.5863,1.5867,1.5871,0,0,0,0,0,0,1.5773,1.5777,1.58,1.5782,1.5784,1.5746,1.5759,1.5751,1.5755,1.5723,1.5716,1.5725,1.5696,1.5698,1.5742,1.5787,1.569,1.5692,1.5859,1.5865,1.5869,1.5966,0,0,0,0,0,0,1.5773,1.5778,1.5807,1.5784,1.5785,1.5842,1.5762,1.5753,1.5759,1.575,1.5732,1.5726,1.5694,1.5739,1.5744,1.5788,1.5694,1.5855,1.5862,1.5868,1.5959,1.5974,1.5987,0,0,0,0,0,1.5771,1.5836,1.5809,1.5813,1.582,1.5844,1.5845,1.5805,1.5763,1.5792,1.5771,1.5727,1.5782,1.5744,1.5749,1.5795,1.5852,1.586,1.5867,1.5952,1.5971,1.5987,0,0,0,0,0,0,1.5867,1.5832,1.5802,1.5861,1.5856,1.5829,1.5864,1.5826,1.5834,1.5825,1.5776,1.5773,1.5824,1.5814,1.5773,1.5868,1.5809,1.5818,1.5872,1.589,1.5903,1.5904,1.5696,0,0,0,0,0,1.5894,1.5916,1.5885,1.594,1.5939,1.5903,1.5911,1.5881,1.5874,1.5872,1.5855,1.585,1.5866,1.5878,1.5891,1.5958,1.5951,1.5991,1.6005,1.6017,1.6025,1.6057,1.6074,1.5896,1.5896,1.5895,0,0,1.5952,1.5936,1.5953,1.5959,1.5951,1.5975,1.5901,1.593,1.5946,1.5877,1.5916,1.5904,1.5896,1.5951,1.5975,1.5944,1.6073,1.6027,1.6036,1.6037,1.6067,1.6083,1.6098,1.5901,1.59,1.5899,0,0,1.6068,1.6059,1.6102,1.6096,1.6086,1.6061,1.6072,1.605,1.6038,1.6078,1.6025,1.6045,1.6074,1.607,1.6071,1.6185,1.6144,1.6191,1.6263,1.6296,1.631,1.6322,1.636,1.6375,1.6199,1.6199,1.62,0,1.6141,1.6174,1.613,1.6161,1.6164,1.6101,1.6144,1.6141,1.6136,1.614,1.6106,1.614,1.613,1.6183,1.621,1.6215,1.6224,1.6192,1.6311,1.6323,1.6334,1.637,1.6385,1.6205,1.6204,1.6204,1.6203,0,1.6263,1.6286,1.6323,1.6317,1.6325,1.6363,1.6324,1.6338,1.6307,1.6286,1.6326,1.6312,1.632,1.6331,1.6302,1.6379,1.636,1.632,1.6259,1.6357,1.639,1.6404,1.6213,1.6211,1.6209,1.6208,0,0,1.6437,1.6407,1.6421,1.6416,1.64,1.6417,1.6452,1.6459,1.647,1.6469,1.6496,1.6521,1.6483,1.6485,1.6455,1.6484,1.6572,1.644,1.6439,1.6463,1.6654,1.6683,1.67,1.6546,1.6548,1.655,1.6654,0,1.6546,1.6601,1.6562,1.6624,1.6644,1.6585,1.6615,1.6608,1.6589,1.6604,1.6583,1.6601,1.6551,1.6551,1.6577,1.6556,1.661,1.6548,1.6569,1.657,1.657,1.6717,1.6748,1.6846,1.6667,1.6669,1.6671,0,1.668,1.6683,1.6747,1.6724,1.6731,1.6758,1.676,1.6776,1.6767,1.6751,1.6753,1.6715,1.6747,1.6689,1.6731,1.669,1.6697,1.6688,1.6691,1.6689,1.6625,1.6717,1.6877,1.6891,1.6691,1.6689,1.6688,0,1.6798,1.6818,1.6858,1.6857,1.6833,1.6853,1.6844,1.6831,1.6838,1.684,1.6843,1.6851,1.6854,1.686,1.6825,1.6787,1.6872,1.6811,1.6858,1.6859,1.6877,1.6876,1.7038,1.6886,1.6885,1.6885,1.6885,0,1.6922,1.6963,1.691,1.6935,1.6978,1.6933,1.6978,1.6963,1.6952,1.6972,1.6923,1.6943,1.6897,1.6912,1.6885,1.6923,1.6926,1.6913,1.6905,1.6916,1.6918,1.6918,1.691,1.6889,1.6888,1.6887,1.6887,0,1.706,1.7027,1.7066,1.7039,1.7033,1.7066,1.7044,1.7065,1.7043,1.7069,1.7073,1.7038,1.7054,1.702,1.7031,1.7013,1.7066,1.7049,1.7069,1.7063,1.7111,1.7106,1.7276,1.7296,1.7134,1.7135,1.7137,0,1.714,1.717,1.7146,1.7155,1.7148,1.7165,1.717,1.7128,1.7136,1.7127,1.7149,1.7161,1.7167,1.7195,1.7171,1.7179,1.7159,1.7219,1.716,1.717,1.7157,1.7155,1.7157,1.723,1.7232,1.7234,1.7235,0,1.7285,1.7267,1.7276,1.728,1.7287,1.7288,1.7286,1.7297,1.7251,1.7263,1.7277,1.7282,1.7293,1.7304,1.7307,1.7298,1.7259,1.7254,1.7265,1.7275,1.7285,1.7278,1.7099,1.725,1.7248,1.7247,1.7246,1.7246,1.7395,1.7417,1.7403,1.7415,1.7408,1.7407,1.7425,1.7404,1.7416,1.742,1.7395,1.7415,1.7404,1.7403,1.7398,1.7413,1.7386,1.7403,1.7407,1.7411,1.7417,1.7284,1.7414,1.7414,1.7413,1.7413,1.7412,0,1.7535,1.7522,1.7534,1.7531,1.754,1.7502,1.7497,1.7508,1.7525,1.7518,1.7525,1.7542,1.7552,1.7529,1.7536,1.7553,1.7535,1.7556,1.7553,1.7551,1.7442,1.7431,1.757,1.757,1.757,1.757,1.757,1.757,1.7608,1.7643,1.7624,1.7655,1.7643,1.7661,1.7661,1.7659,1.7653,1.7673,1.7681,1.7666,1.7652,1.7658,1.7666,1.7659,1.7663,1.7689,1.7676,1.7574,1.7559,1.7544,1.7533,1.7691,1.7691,1.7783,1.7784,1.7785]},{"header":{"parameterUnit":"m.s-1","parameterCategory":1,"la1":30.2991,"la2":30.254,"lo1":-89.0895,"lo2":-89.0444,"dy":0.0017,"dx":0.0017,"nx":28,"ny":28,"refTime":"2024-07-21T09:00:00:Z","depth":0,"parameterNumber":3,"parameterNumberName":"V-component_of_WINDS"},"data":[0,0,0,0,0,0,0,0,0,0,0,0,0,0,0,0,0,0,0,0,0,0,0,0,0,0,0,0,0,0,0,0,0,0,0,0,0,0,0,0,0,0,0,0,0,0,0,0,0,0,0,0,0,0,0,0,0,0,3.6191,3.6191,0,3.623,3.623,3.623,3.6163,3.616,3.6158,3.6156,3.6194,3.6197,3.62,0,0,0,0,0,0,0,0,0,0,0,0,0,3.6054,3.6057,3.6191,3.6191,3.6192,3.623,3.623,3.6231,3.6163,3.616,3.6158,3.6155,3.6192,3.6196,3.62,0,0,0,0,0,0,0,0,0,0,0,0,0,3.6105,3.6058,3.6191,3.6163,3.616,3.6229,3.623,3.6231,3.6164,3.616,3.6157,3.6154,3.6191,3.6196,3.62,3.6298,0,0,3.6215,3.6217,0,0,0,0,0,0,0,0,3.6102,3.611,3.6166,3.6165,3.6162,3.6188,3.6196,3.6253,3.6165,3.6162,3.6156,3.6152,3.6194,3.6198,3.6213,3.63,3.6301,3.6215,3.6218,3.622,3.6221,0,0,0,0,0,0,0,3.6099,3.6108,3.6206,3.6167,3.6165,3.6147,3.615,3.6206,3.6197,3.6162,3.6157,3.6163,3.6192,3.6209,3.6214,3.6302,3.6215,3.6219,3.6222,3.6224,3.6467,3.6471,0,0,0,0,0,0,3.6099,3.6106,3.6205,3.6207,3.6123,3.6152,3.6156,3.6183,3.6196,3.6195,3.6166,3.616,3.6203,3.6208,3.6215,3.6328,3.622,3.6224,3.6227,3.6464,3.6468,3.6472,0,0,0,0,0,0,3.6097,3.6109,3.6203,3.6155,3.6166,3.6158,3.6189,3.6186,3.6202,3.6199,3.6197,3.6185,3.62,3.6208,3.6277,3.6328,3.6227,3.6231,3.6459,3.6465,3.647,3.6556,0,0,0,0,0,0,3.6093,3.6108,3.6146,3.6157,3.6169,3.6267,3.6192,3.6189,3.621,3.6203,3.6216,3.6215,3.6198,3.6271,3.6282,3.6333,3.6234,3.6455,3.6462,3.6468,3.6548,3.6564,3.6577,0,0,0,0,0,3.6088,3.6169,3.6148,3.6161,3.6216,3.627,3.6276,3.6256,3.6215,3.6252,3.625,3.6214,3.6321,3.6278,3.629,3.6343,3.6451,3.646,3.6468,3.6542,3.6561,3.6576,0,0,0,0,0,0,3.6164,3.617,3.6147,3.6234,3.6252,3.6258,3.6304,3.6277,3.6306,3.6298,3.6271,3.6274,3.6348,3.6353,3.6305,3.6437,3.6379,3.639,3.6431,3.6449,3.6463,3.6459,3.6238,0,0,0,0,0,3.6191,3.6235,3.6237,3.6313,3.6323,3.6313,3.6335,3.6318,3.6335,3.6342,3.6345,3.6363,3.64,3.6425,3.6459,3.6549,3.655,3.6591,3.6605,3.6617,3.6626,3.6672,3.669,3.6499,3.6499,3.6499,0,0,3.6247,3.6255,3.6285,3.6328,3.634,3.6385,3.6319,3.637,3.6402,3.635,3.6415,3.6418,3.6435,3.6515,3.655,3.6521,3.6679,3.6627,3.6637,3.664,3.6683,3.6701,3.6717,3.6505,3.6504,3.6503,0,0,3.6371,3.6383,3.6446,3.6459,3.6478,3.647,3.6486,3.6496,3.6496,3.6561,3.6522,3.656,3.6625,3.6638,3.6654,3.6782,3.6749,3.6793,3.6866,3.6912,3.6927,3.694,3.6983,3.7,3.6803,3.6803,3.6803,0,3.6437,3.6504,3.6482,3.6535,3.6554,3.6509,3.6572,3.6586,3.6615,3.6629,3.6596,3.6676,3.6685,3.6766,3.6797,3.6811,3.6826,3.6791,3.6926,3.6939,3.6951,3.6993,3.7009,3.6808,3.6808,3.6807,3.6807,0,3.6584,3.6631,3.668,3.6709,3.6734,3.6792,3.6777,3.6805,3.6786,3.6781,3.6847,3.6855,3.689,3.6908,3.6889,3.6986,3.6967,3.6931,3.6872,3.6975,3.7013,3.7029,3.6816,3.6814,3.6812,3.6811,0,0,3.6757,3.6773,3.6791,3.6803,3.682,3.6855,3.691,3.6944,3.6967,3.6989,3.7033,3.7089,3.7055,3.7072,3.7055,3.7095,3.7193,3.7053,3.7053,3.7077,3.7297,3.7323,3.7342,3.7172,3.7175,3.7177,3.7295,0,3.6879,3.6974,3.6955,3.7048,3.709,3.7047,3.7094,3.7109,3.7106,3.714,3.7136,3.7175,3.7129,3.7138,3.7176,3.7173,3.7236,3.7164,3.7211,3.7213,3.7207,3.7363,3.7391,3.7502,3.731,3.7313,3.7315,0,3.7034,3.7061,3.7158,3.7167,3.7183,3.7227,3.7255,3.7289,3.7304,3.7299,3.7318,3.7293,3.7345,3.7287,3.7358,3.7309,3.7327,3.7329,3.7332,3.7335,3.7269,3.7368,3.7537,3.7553,3.7338,3.7337,3.7335,0,3.7148,3.7208,3.7274,3.7286,3.7298,3.7329,3.7336,3.7348,3.7369,3.7393,3.7406,3.7437,3.7454,3.7477,3.746,3.7419,3.7534,3.7474,3.7529,3.753,3.7554,3.7553,3.7727,3.7569,3.7568,3.7568,3.7568,0,3.7285,3.7345,3.7325,3.7365,3.7431,3.7408,3.7474,3.7475,3.7486,3.7524,3.7489,3.7526,3.7501,3.7536,3.7523,3.7583,3.7591,3.7587,3.7582,3.7589,3.7589,3.7599,3.7591,3.7572,3.7571,3.7571,3.757,0,3.7423,3.7412,3.748,3.7486,3.7489,3.7537,3.7541,3.7578,3.7572,3.7621,3.7631,3.7621,3.766,3.7645,3.7686,3.7677,3.7753,3.7739,3.7748,3.7744,3.7799,3.7794,3.7985,3.8008,3.7837,3.7838,3.784,0,3.751,3.7556,3.7567,3.759,3.7599,3.7638,3.7659,3.7638,3.7661,3.7681,3.7715,3.775,3.7777,3.784,3.7836,3.7866,3.7852,3.7917,3.7856,3.7861,3.7851,3.7848,3.7851,3.7929,3.7931,3.7932,3.7934,0,3.7666,3.7658,3.7691,3.7721,3.7747,3.777,3.7789,3.781,3.779,3.7817,3.7856,3.7877,3.7919,3.7954,3.7981,3.7986,3.7956,3.7953,3.7967,3.7974,3.7976,3.7974,3.7779,3.7948,3.7947,3.7946,3.7945,3.7944,3.778,3.7818,3.7831,3.7868,3.788,3.7899,3.7933,3.7931,3.7963,3.7996,3.7981,3.8025,3.8038,3.8071,3.808,3.8114,3.8088,3.8109,3.8114,3.8119,3.8126,3.7972,3.8119,3.8119,3.8118,3.8118,3.8117,0,3.7933,3.7939,3.7973,3.8001,3.8029,3.8,3.8019,3.8045,3.8085,3.8099,3.8126,3.817,3.8203,3.8202,3.8232,3.8259,3.8246,3.8268,3.8265,3.8266,3.8148,3.8132,3.8278,3.8278,3.8278,3.8278,3.8278,3.8278,3.8015,3.8077,3.807,3.8137,3.8142,3.8186,3.82,3.8216,3.8227,3.8278,3.8306,3.8305,3.8312,3.8343,3.8371,3.837,3.8382,3.8408,3.8402,3.8291,3.8275,3.826,3.8244,3.8412,3.8412,3.8517,3.8518,3.8519]}]]